Flag for U.S.A. Weather past 2 weeks in Anchorage, Alaska, U.S.A.

Now
56 °F

Mostly cloudy.


Feels Like: 56 °F
Forecast: 54 / 62 °F
Wind: 3 mph from South

Location: Lake Hood Seaplane

Current Time: Jul 2, 2015 at 1:29:45 PM

Latest Report: Jul 2, 2015 at 12:53 PM


Visibility: 10 mi

Pressure: 30.02 "Hg

Humidity: 81%

Dew point: 50 °F

Location of AnchorageLocation

Historic Weather in Anchorage — Graph

°F

Anchorage temperature yesterday

Maximum temperature yesterday: 61 °F (at 6:53 PM)
Minimum temperature yesterday: 53 °F (at 2:53 AM)
Average temperature yesterday: 57 °F

Past Weeks' High & Low Weather Summary

 TemperatureHumidityPressure
High80 °F (Jun 17, 3:53 PM)89% (Jun 30, 5:53 AM)30.21 "Hg (Jun 30, 5:53 AM)
Low51 °F (Jul 2, 5:53 AM)31% (Jun 17, 3:53 PM)29.76 "Hg (Jun 25, 7:53 PM)
Average61 °F62%29.98 "Hg
* Reported Jun 17 11:53 AM — Jul 2 11:53 AM, Anchorage, Weather by CustomWeather, © 2015

Note: Actual official high and low records may vary slightly from our data, if they occured in-between our weather recording intervals... More about our weather records

Advertising

Anchorage weather history for previous 24 hours

 ConditionsComfort  
Time TempWeatherWind HumidityBarometerVisibility
11:53 AM
Thu, Jul 2
53 °FOvercast.5 mph89%30.01 "Hg7 mi
10:53 AM53 °FOvercast.5 mph86%30.01 "Hg10 mi
9:53 AM53 °FOvercast.6 mph86%30.00 "Hg10 mi
8:53 AM52 °FMostly cloudy.6 mph86%29.99 "Hg10 mi
7:53 AM52 °FLow clouds.3 mph83%29.98 "Hg10 mi
6:53 AM51 °FLow clouds.6 mph86%29.98 "Hg10 mi
5:53 AM51 °FCloudy.5 mph89%29.98 "Hg10 mi
4:53 AM52 °FMostly cloudy.3 mph89%29.98 "Hg10 mi
3:53 AM52 °FMostly cloudy.5 mph86%29.99 "Hg9 mi
2:53 AM53 °FMostly cloudy.No wind83%30.00 "Hg10 mi
1:53 AM53 °FOvercast.No wind80%30.01 "Hg10 mi
12:53 AM53 °FOvercast.No wind80%30.02 "Hg10 mi
11:53 PM
Wed, Jul 1
54 °FSunny.No wind74%30.03 "Hg10 mi
10:53 PM56 °FPassing clouds.6 mph70%30.03 "Hg10 mi
9:53 PM58 °FSunny.8 mph65%30.03 "Hg10 mi
8:53 PM60 °FSunny.8 mph58%30.04 "Hg10 mi
7:53 PM60 °FSunny.9 mph56%30.05 "Hg10 mi
6:53 PM61 °FSunny.6 mph60%30.07 "Hg10 mi
5:53 PM59 °FSunny.10 mph62%30.09 "Hg10 mi
4:53 PM59 °FSunny.10 mph62%30.11 "Hg10 mi
3:53 PM60 °FSunny.12 mph62%30.12 "Hg10 mi
2:53 PM59 °FSunny.9 mph58%30.14 "Hg10 mi
1:53 PM58 °FScattered clouds.7 mph58%30.16 "Hg10 mi
Weather by CustomWeather, © 2015

See weather overviewHow to use our weather pages